• In Czech Republic
  • List of Countries
  • For 7 days
  • Water Temperature
  • Satellite Maps
  • Weather Map
  • Weather Widgets
  • user-avatar
    Login

    Hourly Weather Edinburgh

    Today, 25 February, Sunday

    Time Temperature Precipitation Wind Pressure Humidity
    00:00 -2°C° 0 mm 4 mps 769 mmHg 82%
    01:00 -1°C° 0 mm 3 mps 769 mmHg 83%
    02:00 -1°C° 0 mm 3 mps 769 mmHg 85%
    03:00 -1°C° 0 mm 3 mps 769 mmHg 87%
    04:00 -1°C° 0 mm 3 mps 769 mmHg 88%
    05:00 -1°C° 0 mm 3 mps 769 mmHg 89%
    06:00 -1°C° 0 mm 3 mps 769 mmHg 90%
    07:00 -1°C° 0 mm 3 mps 770 mmHg 86%
    08:00 0°C° 0 mm 3 mps 770 mmHg 82%
    09:00 +1°C° 0 mm 3 mps 770 mmHg 78%
    10:00 +2°C° 0 mm 3 mps 770 mmHg 72%
    11:00 +3°C° 0 mm 4 mps 770 mmHg 66%
    12:00 +4°C° 0 mm 4 mps 771 mmHg 60%
    13:00 +4°C° 0 mm 4 mps 771 mmHg 60%
    14:00 +5°C° 0 mm 4 mps 770 mmHg 59%
    15:00 +5°C° 0 mm 4 mps 770 mmHg 59%
    16:00 +4°C° 0 mm 4 mps 771 mmHg 65%
    17:00 +1°C° 0 mm 4 mps 771 mmHg 70%
    18:00 +1°C° 0 mm 3 mps 771 mmHg 76%
    19:00 -1°C° 0 mm 4 mps 771 mmHg 78%
    20:00 -1°C° 0 mm 4 mps 772 mmHg 80%
    21:00 -2°C° 0 mm 4 mps 772 mmHg 81%
    22:00 -2°C° 0 mm 4 mps 772 mmHg 81%
    23:00 -3°C° 0 mm 4 mps 773 mmHg 81%

    Tomorrow, 26 February, Monday

    Time Temperature Precipitation Wind Pressure Humidity
    00:00 -3°C° 0 mm 4 mps 773 mmHg 80%
    01:00 -3°C° 0 mm 4 mps 774 mmHg 81%
    02:00 -3°C° 0 mm 4 mps 774 mmHg 81%
    03:00 -3°C° 0 mm 4 mps 774 mmHg 81%
    04:00 -2°C° 0 mm 3 mps 774 mmHg 82%
    05:00 -2°C° 0 mm 3 mps 775 mmHg 83%
    06:00 -2°C° 0 mm 3 mps 775 mmHg 84%
    07:00 -2°C° 0 mm 4 mps 775 mmHg 79%
    08:00 -2°C° 0 mm 4 mps 775 mmHg 75%
    09:00 -1°C° 0 mm 5 mps 776 mmHg 70%
    10:00 0°C° 0 mm 5 mps 776 mmHg 65%
    11:00 -1°C° 0 mm 6 mps 776 mmHg 60%
    12:00 +1°C° 0 mm 6 mps 776 mmHg 55%
    13:00 +1°C° 0 mm 6 mps 776 mmHg 55%
    14:00 +1°C° 0 mm 6 mps 776 mmHg 54%
    15:00 +1°C° 0 mm 6 mps 776 mmHg 53%
    16:00 0°C° 0 mm 5 mps 776 mmHg 58%
    17:00 -1°C° 0 mm 4 mps 776 mmHg 63%
    18:00 -2°C° 0 mm 4 mps 776 mmHg 68%
    19:00 -2°C° 0 mm 3 mps 776 mmHg 72%
    20:00 -2°C° 0 mm 3 mps 777 mmHg 75%
    21:00 -2°C° 0 mm 3 mps 777 mmHg 78%
    22:00 -2°C° 0 mm 3 mps 776 mmHg 80%
    23:00 -4°C° 0 mm 3 mps 776 mmHg 81%

    Day after tomorrow, 27 February, Tuesday

    Time Temperature Precipitation Wind Pressure Humidity
    00:00 -3°C° 0 mm 2 mps 776 mmHg 83%
    01:00 -4°C° 0 mm 3 mps 775 mmHg 81%
    02:00 -4°C° 0 mm 3 mps 775 mmHg 79%
    03:00 -4°C° 0 mm 3 mps 774 mmHg 77%
    04:00 -2°C° 0.1 mm 3 mps 774 mmHg 76%
    05:00 -3°C° 0.1 mm 4 mps 773 mmHg 74%
    06:00 -3°C° 0.1 mm 4 mps 773 mmHg 73%
    07:00 -2°C° 0.2 mm 4 mps 772 mmHg 75%
    08:00 -2°C° 0.2 mm 4 mps 772 mmHg 78%
    09:00 -1°C° 0.2 mm 4 mps 772 mmHg 80%
    10:00 -1°C° 0.2 mm 5 mps 772 mmHg 75%
    11:00 0°C° 0.2 mm 5 mps 772 mmHg 70%
    12:00 -1°C° 0.2 mm 6 mps 772 mmHg 65%
    13:00 -1°C° 0.1 mm 6 mps 772 mmHg 63%
    14:00 -1°C° 0.1 mm 6 mps 771 mmHg 62%
    15:00 -2°C° 0.1 mm 6 mps 771 mmHg 60%
    16:00 -2°C° 0.1 mm 6 mps 771 mmHg 65%
    17:00 -3°C° 0.1 mm 6 mps 771 mmHg 70%
    18:00 -4°C° 0.1 mm 5 mps 771 mmHg 76%
    19:00 -4°C° 0.1 mm 5 mps 771 mmHg 76%
    20:00 -5°C° 0.1 mm 6 mps 771 mmHg 77%
    21:00 -5°C° 0.1 mm 6 mps 771 mmHg 77%
    22:00 -5°C° 0.1 mm 6 mps 771 mmHg 76%
    23:00 -5°C° 0.1 mm 6 mps 771 mmHg 74%

    28 February, Wednesday

    Time Temperature Precipitation Wind Pressure Humidity
    00:00 -7°C° 0.1 mm 7 mps 771 mmHg 73%
    01:00 -7°C° 0.1 mm 7 mps 770 mmHg 73%
    02:00 -6°C° 0.1 mm 6 mps 770 mmHg 73%
    03:00 -8°C° 0.1 mm 6 mps 769 mmHg 74%
    04:00 -8°C° 0.1 mm 6 mps 769 mmHg 73%
    05:00 -8°C° 0.1 mm 6 mps 769 mmHg 72%
    06:00 -8°C° 0.1 mm 6 mps 768 mmHg 72%
    07:00 -8°C° 0.1 mm 7 mps 768 mmHg 69%
    08:00 -7°C° 0.1 mm 7 mps 768 mmHg 67%
    09:00 -7°C° 0.1 mm 7 mps 768 mmHg 65%
    10:00 -6°C° 0.1 mm 8 mps 767 mmHg 63%
    11:00 -6°C° 0.1 mm 8 mps 767 mmHg 60%
    12:00 -5°C° 0.1 mm 8 mps 766 mmHg 58%
    13:00 -5°C° 0.2 mm 8 mps 766 mmHg 62%
    14:00 -5°C° 0.2 mm 8 mps 766 mmHg 66%
    15:00 -5°C° 0.2 mm 8 mps 765 mmHg 70%
    16:00 -6°C° 0.1 mm 8 mps 766 mmHg 71%
    17:00 -6°C° 0.1 mm 7 mps 766 mmHg 72%
    18:00 -7°C° 0.1 mm 7 mps 766 mmHg 73%
    19:00 -7°C° 0.1 mm 7 mps 767 mmHg 71%
    20:00 -7°C° 0.1 mm 7 mps 767 mmHg 70%
    21:00 -7°C° 0.1 mm 7 mps 767 mmHg 69%
    22:00 -7°C° 0.2 mm 7 mps 766 mmHg 74%
    23:00 -7°C° 0.2 mm 7 mps 766 mmHg 78%

    1 March, Thursday

    Time Temperature Precipitation Wind Pressure Humidity
    00:00 -7°C° 0.2 mm 7 mps 766 mmHg 83%
    01:00 -7°C° 0.4 mm 7 mps 765 mmHg 83%
    02:00 -7°C° 0.4 mm 7 mps 764 mmHg 83%
    03:00 -7°C° 0.4 mm 7 mps 764 mmHg 83%
    04:00 -7°C° 0.2 mm 7 mps 764 mmHg 83%
    05:00 -6°C° 0.2 mm 7 mps 763 mmHg 83%
    06:00 -6°C° 0.2 mm 7 mps 763 mmHg 83%
    07:00 -6°C° 0.3 mm 8 mps 763 mmHg 83%
    08:00 -6°C° 0.3 mm 8 mps 763 mmHg 82%
    09:00 -5°C° 0.3 mm 9 mps 762 mmHg 81%
    10:00 -5°C° 0.2 mm 9 mps 762 mmHg 80%
    11:00 -5°C° 0.2 mm 10 mps 762 mmHg 79%
    12:00 -4°C° 0.2 mm 10 mps 761 mmHg 77%
    13:00 -4°C° 0.2 mm 10 mps 761 mmHg 78%
    14:00 -4°C° 0.2 mm 10 mps 760 mmHg 78%
    15:00 -4°C° 0.2 mm 10 mps 760 mmHg 79%
    16:00 -4°C° 0.2 mm 10 mps 760 mmHg 80%
    17:00 -5°C° 0.2 mm 10 mps 759 mmHg 81%
    18:00 -5°C° 0.2 mm 9 mps 759 mmHg 82%
    19:00 -5°C° 0.1 mm 9 mps 759 mmHg 82%
    20:00 -5°C° 0.1 mm 10 mps 759 mmHg 81%
    21:00 -5°C° 0.1 mm 10 mps 758 mmHg 80%
    22:00 -5°C° 0.1 mm 10 mps 758 mmHg 81%
    23:00 -5°C° 0.1 mm 10 mps 757 mmHg 81%

    2 March, Friday

    Time Temperature Precipitation Wind Pressure Humidity
    00:00 -4°C° 0.1 mm 10 mps 757 mmHg 81%
    01:00 -4°C° 0 mm 11 mps 756 mmHg 80%
    02:00 -4°C° 0 mm 11 mps 755 mmHg 80%
    03:00 -4°C° 0 mm 11 mps 754 mmHg 79%
    04:00 -4°C° 0.1 mm 11 mps 754 mmHg 80%
    05:00 -4°C° 0.1 mm 11 mps 754 mmHg 80%
    06:00 -4°C° 0.1 mm 11 mps 753 mmHg 80%
    07:00 -4°C° 0.2 mm 11 mps 753 mmHg 81%
    08:00 -4°C° 0.2 mm 11 mps 752 mmHg 81%
    09:00 -4°C° 0.2 mm 11 mps 752 mmHg 82%
    10:00 -4°C° 0.4 mm 11 mps 752 mmHg 82%
    11:00 -4°C° 0.4 mm 11 mps 751 mmHg 83%
    12:00 -3°C° 0.4 mm 11 mps 751 mmHg 83%
    13:00 -3°C° 0.4 mm 10 mps 751 mmHg 84%
    14:00 -3°C° 0.4 mm 10 mps 750 mmHg 84%
    15:00 -3°C° 0.4 mm 10 mps 750 mmHg 85%
    16:00 -3°C° 0.5 mm 9 mps 750 mmHg 86%
    17:00 -4°C° 0.5 mm 9 mps 750 mmHg 87%
    18:00 -4°C° 0.5 mm 8 mps 749 mmHg 89%
    19:00 -4°C° 0.4 mm 8 mps 749 mmHg 89%
    20:00 -3°C° 0.4 mm 7 mps 749 mmHg 90%
    21:00 -3°C° 0.4 mm 7 mps 749 mmHg 90%
    22:00 -3°C° 0.2 mm 7 mps 749 mmHg 91%
    23:00 -3°C° 0.2 mm 7 mps 749 mmHg 91%
    Show more